Simultaneous Nadir Overpasses (SNOs) Predictions

Prediction of SNOs between GOES-16 and LANDSAT-8 Satellite Orbit:

Table of predicted SNOs for the next 14.0 days since TLE Epoch: 5/27/2023
Index Date Time (GOES-16) GOES-16 Lat,Lon LANDSAT-8 Lat,Lon Distance(km) Time Diff (sec)
1 05/27/2023 15:05:48 -0.01, -75.20 -0.26, -73.92 144.66 80
2 05/28/2023 03:29:53 0.01, -75.20 -0.80, -79.12 445.45 80
3 05/29/2023 14:53:37 -0.02, -75.21 -0.90, -70.96 482.50 80
4 05/30/2023 03:17:41 0.01, -75.21 -0.21, -76.15 107.41 80
5 06/01/2023 03:02:50 0.01, -75.23 0.45, -73.20 231.21 80
6 06/01/2023 15:26:45 -0.01, -75.24 0.68, -78.34 354.16 80
7 06/03/2023 15:14:34 -0.01, -75.25 0.01, -75.39 15.50 80
8 06/05/2023 14:59:42 -0.02, -75.27 -0.61, -72.43 323.10 80
9 06/06/2023 03:23:46 0.01, -75.27 -0.49, -77.62 266.53 80
10 06/08/2023 03:08:54 0.03, -75.30 0.15, -74.66 72.55 80
